Location: Lane
(33.5226°N, 79.8788°W)
Time: 01:51:23
(UTC+00:00)

Tiros 1 despin weight - Pass Details

Date: 10 October 2022
Orbit: 590 x 637 km, 48.2° (Epoch: 30 November)

Event Time Altitude Azimuth Distance (km) Brightness Sun altitude
Rises 20:06:03 0° 290° (WNW) 2,827 ? 31.3°
Reaches altitude 10° 20:09:22 10° 316° (NW) 1,935 ? 30.8°
Maximum altitude 20:11:43 14° 349° (NNW) 1,692 ? 30.4°
Drops below altitude 10° 20:14:06 10° 21° (NNE) 1,951 ? 30.0°
Sets 20:17:28 0° 47° (NE) 2,868 ? 29.4°
